Content
SEND FEEDBACK

Daily
Averages
Monthly
Summary
United States of America

WILMINGTON, NORTH CAROLINA


Home > North America > United States > North Carolina
Elevation: 72 feet     Latitude: 34 16N     Longitude: 077 54W

WEATHER
 
SELECT A DAY
Number of Records: 212,260;   Date Range: 1/1/95 - 10/19/14
 
SHARE

PRINT THIS DATA

[ ← Previous Day ]
WEATHER ALMANAC - MAY 21, 2013
[ Next Day → ]
[ °C ]   °F
Weather ElementAverageHighLow
Temperature74.7 °F82 °F (1:53 pm)69.1 °F (1:53 am)
Dewpoint67.3 °F69.8 °F (1:01 pm)64.9 °F (4:53 pm)
Humidity78.5 %93 % (1:53 am)60 % (3:53 pm)
Barometer30.05 in30.09 in (8:53 am)30.01 in (3:53 pm)
Wind Speed6.9 mph15 mph (1:53 pm)
Wind Gust20.7 mph (2:53 pm)
Weather ElementAverage
Visibility10 mi
Wind DirectionSSE (147.5 °)

Weather ElementTotal
Precipitation---
Cooling Degree Days10.6 (Base 65)
Growing Degree Days25.6 (Base 50)
Averaged from 24 records on May 21, 2013
WEATHER CONDITIONS BREAKOUT
WIND DIRECTION BREAKOUT
WEATHER BY HOUR - MAY 21, 2013
[ °C ]   °F
Local TimeTemperatureDewpointHumidityBarometerVisibilityWind DirectionWind SpeedGust SpeedPrecipitationEventsConditions
1:53 AM69.1 °F66.9 °F93 %30.05 in10.0 miSSE (160°)3.5 mphPartly Cloudy
2:53 AM70.0 °F68.0 °F93 %30.04 in9.0 miCalmOvercast
3:53 AM71.1 °F69.1 °F93 %30.04 in10.0 miCalmOvercast
4:53 AM71.1 °F69.1 °F93 %30.04 in10.0 miCalmOvercast
5:53 AM71.1 °F69.1 °F93 %30.06 in10.0 miSSE (160°)3.5 mphOvercast
6:53 AM71.1 °F69.1 °F93 %30.07 in10.0 miCalmMostly Cloudy
7:53 AM75.0 °F68.0 °F79 %30.08 in10.0 miSSW (210°)8.1 mphOvercast
8:53 AM75.0 °F66.9 °F76 %30.09 in10.0 miSSW (200°)10.4 mphOvercast
9:53 AM75.0 °F68.0 °F79 %30.09 in10.0 miSouth (190°)9.2 mphOvercast
10:53 AM75.0 °F66.9 °F76 %30.09 in10.0 miSSW (200°)8.1 mphMostly Cloudy
11:53 AM79.0 °F66.0 °F64 %30.09 in10.0 miSSW (200°)11.5 mphClear
12:53 PM78.1 °F69.1 °F74 %30.07 in10.0 miSouth (170°)6.9 mphScattered Clouds
1:01 PM78.8 °F69.8 °F74 %30.07 in10.0 miSSE (150°)8.1 mphMostly Cloudy
1:53 PM82.0 °F68.0 °F62 %30.05 in10.0 miSouth (180°)15.0 mphMostly Cloudy
2:53 PM81.0 °F68.0 °F65 %30.04 in10.0 miSouth (190°)12.7 mph20.7 mphPartly Cloudy
3:53 PM81.0 °F66.0 °F60 %30.01 in10.0 miSouth (190°)9.2 mphPartly Cloudy
4:53 PM79.0 °F64.9 °F62 %30.02 in10.0 miSouth (180°)10.4 mphPartly Cloudy
5:53 PM79.0 °F64.9 °F62 %30.01 in10.0 miSW (220°)9.2 mphClear
6:53 PM75.9 °F64.9 °F69 %30.03 in10.0 miSW (220°)9.2 mphPartly Cloudy
7:53 PM73.9 °F66.0 °F76 %30.01 in10.0 miSouth (180°)10.4 mphClear
8:53 PM72.0 °F66.0 °F81 %30.01 in10.0 miSouth (190°)9.2 mphClear
9:53 PM71.1 °F66.9 °F87 %30.03 in10.0 miSouth (180°)5.8 mphClear
10:53 PM70.0 °F66.9 °F90 %30.04 in10.0 miCalmClear
11:53 PM69.1 °F66.0 °F90 %30.04 in10.0 miSouth (170°)5.8 mphClear
Hourly data recorded from KILM, located miles away from Wilmington, North Carolina







STORIES FROM OUR PARTNERS